WZZ9007 LZIB-LOWI

Flight info

Callsign WZZ9007
Flight time 0h 46m
Altitude 36000
Route TOVKA2G/13 TOVKA DCT NANIT NANIT2A
Aircraft A20N/M-SDE2E3FGHIRWXY/LB1

Departure

Time 2026-05-04 17:37
Airport M. R. Štefánik Airport (LZIB)

Arrival

Time 2026-05-04 18:23
Airport Innsbruck Airport (LOWI)
Time Latitude Longitude Altitude Speed Heading
2026-05-04 17:20 48.16921 17.20099 445 ft 0 kts 314°
2026-05-04 17:30 48.16905 17.20125 443 ft 2 kts 314°
2026-05-04 17:31 48.16880 17.20148 443 ft 2 kts
2026-05-04 17:31 48.16858 17.20131 443 ft 0 kts 46°
2026-05-04 17:33 48.16859 17.20133 443 ft 1 kts 61°
2026-05-04 17:33 48.16824 17.20194 443 ft 12 kts 133°
2026-05-04 17:34 48.16928 17.20704 443 ft 31 kts 46°
2026-05-04 17:34 48.17035 17.20832 443 ft 17 kts 349°
2026-05-04 17:35 48.17308 17.20432 443 ft 18 kts 313°
2026-05-04 17:35 48.17518 17.20362 443 ft 13 kts 56°
2026-05-04 17:35 48.17513 17.20483 443 ft 0 kts 127°
2026-05-04 17:36 48.17403 17.20657 443 ft 62 kts 134°
2026-05-04 17:36 48.16931 17.21391 444 ft 132 kts 134°
2026-05-04 17:37 48.16177 17.22562 709 ft 164 kts 135°
2026-05-04 17:37 48.15378 17.23737 1444 ft 163 kts 135°
2026-05-04 17:37 48.14618 17.24915 2207 ft 161 kts 134°
2026-05-04 17:37 48.13823 17.26170 2695 ft 172 kts 134°
2026-05-04 17:38 48.12971 17.27506 3101 ft 189 kts 134°
2026-05-04 17:38 48.12022 17.28986 3526 ft 205 kts 135°
2026-05-04 17:38 48.11074 17.30640 4113 ft 214 kts 126°
2026-05-04 17:38 48.10102 17.32429 4451 ft 233 kts 144°
2026-05-04 17:39 48.06903 17.32984 5385 ft 264 kts 202°
2026-05-04 17:39 48.05413 17.31384 6158 ft 271 kts 229°
2026-05-04 17:39 48.04594 17.28858 7002 ft 277 kts 257°
2026-05-04 17:40 48.04732 17.25981 7783 ft 288 kts 288°
2026-05-04 17:40 48.05858 17.23506 8564 ft 296 kts 314°
2026-05-04 17:40 48.07367 17.21399 9349 ft 299 kts 314°
2026-05-04 17:40 48.08834 17.19313 10055 ft 303 kts 313°
2026-05-04 17:41 48.10134 17.16846 10619 ft 308 kts 291°
2026-05-04 17:41 48.10543 17.13654 10991 ft 319 kts 263°
2026-05-04 17:41 48.10133 17.10329 11377 ft 332 kts 254°
2026-05-04 17:41 48.09542 17.06922 11714 ft 347 kts 254°
2026-05-04 17:42 48.08957 17.03382 12130 ft 358 kts 255°
2026-05-04 17:42 48.08403 16.99719 12880 ft 360 kts 256°
2026-05-04 17:42 48.07886 16.96085 13684 ft 360 kts 256°
2026-05-04 17:42 48.07388 16.92443 14367 ft 363 kts 257°
2026-05-04 17:43 48.06890 16.88746 15016 ft 368 kts 257°
2026-05-04 17:43 48.06385 16.84949 15710 ft 371 kts 257°
2026-05-04 17:43 48.05892 16.81202 16396 ft 375 kts 257°
2026-05-04 17:43 48.05393 16.77373 17087 ft 378 kts 257°
2026-05-04 17:44 48.04887 16.73474 17764 ft 381 kts 258°
2026-05-04 17:44 48.04387 16.69615 18416 ft 384 kts 258°
2026-05-04 17:44 48.03944 16.66200 18973 ft 387 kts 258°
2026-05-04 17:44 48.03424 16.62198 19597 ft 390 kts 258°
2026-05-04 17:45 48.02909 16.58251 20196 ft 394 kts 258°
2026-05-04 17:45 48.02385 16.54230 20793 ft 396 kts 258°
2026-05-04 17:45 48.01855 16.50167 21368 ft 400 kts 258°
2026-05-04 17:45 48.01324 16.46089 21926 ft 403 kts 259°
2026-05-04 17:46 48.00783 16.41946 22487 ft 407 kts 259°
2026-05-04 17:46 48.00240 16.37816 23027 ft 410 kts 259°
2026-05-04 17:46 47.99688 16.33630 23563 ft 413 kts 258°
2026-05-04 17:46 47.99128 16.29407 24091 ft 417 kts 258°
2026-05-04 17:47 47.98563 16.25158 24603 ft 420 kts 258°
2026-05-04 17:47 47.97997 16.20911 25089 ft 423 kts 258°
2026-05-04 17:47 47.97424 16.16625 25565 ft 426 kts 258°
2026-05-04 17:47 47.96843 16.12297 26038 ft 429 kts 258°
2026-05-04 17:48 47.96256 16.07929 26506 ft 432 kts 258°
2026-05-04 17:48 47.95665 16.03552 26954 ft 434 kts 258°
2026-05-04 17:48 47.95060 15.99089 27388 ft 437 kts 258°
2026-05-04 17:48 47.94463 15.94685 27788 ft 440 kts 259°
2026-05-04 17:49 47.93855 15.90217 28178 ft 443 kts 259°
2026-05-04 17:49 47.93243 15.85733 28541 ft 445 kts 259°
2026-05-04 17:49 47.92622 15.81195 28893 ft 448 kts 259°
2026-05-04 17:49 47.91996 15.76642 29218 ft 450 kts 259°
2026-05-04 17:50 47.91369 15.72094 29572 ft 451 kts 259°
2026-05-04 17:50 47.90733 15.67491 29956 ft 450 kts 259°
2026-05-04 17:50 47.90104 15.62963 30061 ft 449 kts 259°
2026-05-04 17:50 47.89473 15.58432 30095 ft 448 kts 259°
2026-05-04 17:51 47.88203 15.49345 30139 ft 447 kts 259°
2026-05-04 17:51 47.86929 15.40283 30087 ft 446 kts 259°
2026-05-04 17:52 47.85649 15.31243 30037 ft 446 kts 259°
2026-05-04 17:52 47.84357 15.22166 30015 ft 446 kts 259°
2026-05-04 17:53 47.83073 15.13202 30047 ft 446 kts 259°
2026-05-04 17:53 47.81774 15.04188 30057 ft 445 kts 259°
2026-05-04 17:54 47.80470 14.95200 30043 ft 445 kts 259°
2026-05-04 17:54 47.79160 14.86217 30040 ft 444 kts 259°
2026-05-04 17:55 47.77851 14.77293 29962 ft 444 kts 259°
2026-05-04 17:55 47.76527 14.68314 29869 ft 446 kts 259°
2026-05-04 17:56 47.75195 14.59351 29922 ft 447 kts 259°
2026-05-04 17:56 47.73852 14.50364 29986 ft 447 kts 259°
2026-05-04 17:57 47.72506 14.41401 29994 ft 446 kts 258°
2026-05-04 17:57 47.71148 14.32420 29976 ft 445 kts 258°
2026-05-04 17:58 47.69784 14.23444 29958 ft 445 kts 258°
2026-05-04 17:58 47.68418 14.14504 29965 ft 445 kts 258°
2026-05-04 17:59 47.67048 14.05580 29985 ft 445 kts 258°
2026-05-04 18:00 47.64982 13.92224 29857 ft 445 kts 258°
2026-05-04 18:00 47.64283 13.87730 29666 ft 444 kts 258°
2026-05-04 18:00 47.63595 13.83316 29484 ft 443 kts 258°
2026-05-04 18:00 47.62905 13.78899 29243 ft 441 kts 258°
2026-05-04 18:01 47.62214 13.74488 28997 ft 440 kts 258°
2026-05-04 18:01 47.61520 13.70072 28750 ft 438 kts 258°
2026-05-04 18:01 47.60833 13.65710 28505 ft 436 kts 258°
2026-05-04 18:02 47.59451 13.56972 27975 ft 437 kts 257°
2026-05-04 18:02 47.58759 13.52608 27711 ft 436 kts 257°
2026-05-04 18:02 47.58071 13.48283 27449 ft 436 kts 257°
2026-05-04 18:02 47.57374 13.43925 27167 ft 435 kts 257°
2026-05-04 18:03 47.56678 13.39586 26886 ft 434 kts 257°
2026-05-04 18:03 47.55979 13.35242 26599 ft 433 kts 257°
2026-05-04 18:03 47.55289 13.30968 26271 ft 432 kts 256°
2026-05-04 18:03 47.54594 13.26663 25923 ft 430 kts 256°
2026-05-04 18:04 47.53894 13.22337 25226 ft 426 kts 256°
2026-05-04 18:04 47.53212 13.18134 24790 ft 423 kts 256°
2026-05-04 18:04 47.51834 13.09669 23890 ft 416 kts 256°
2026-05-04 18:05 47.51162 13.05558 23434 ft 413 kts 256°
2026-05-04 18:05 47.50492 13.01470 22966 ft 409 kts 256°
2026-05-04 18:05 47.49823 12.97403 22503 ft 406 kts 256°
2026-05-04 18:05 47.49166 12.93407 21991 ft 402 kts 256°
2026-05-04 18:06 47.47853 12.85457 21055 ft 395 kts 256°
2026-05-04 18:06 47.47201 12.81531 20596 ft 392 kts 256°
2026-05-04 18:06 47.46558 12.77664 20181 ft 389 kts 256°
2026-05-04 18:07 47.45909 12.73772 19695 ft 386 kts 256°
2026-05-04 18:07 47.45273 12.69963 19182 ft 382 kts 256°
2026-05-04 18:07 47.44638 12.66167 18650 ft 379 kts 256°
2026-05-04 18:07 47.44014 12.62444 18112 ft 376 kts 256°
2026-05-04 18:08 47.43390 12.58733 17581 ft 372 kts 256°
2026-05-04 18:08 47.42766 12.55035 17051 ft 369 kts 256°
2026-05-04 18:08 47.42153 12.51400 16532 ft 365 kts 256°
2026-05-04 18:08 47.41545 12.47793 16002 ft 363 kts 256°
2026-05-04 18:09 47.40335 12.40661 15099 ft 352 kts 256°
2026-05-04 18:09 47.39547 12.33928 15014 ft 319 kts 267°
2026-05-04 18:10 47.39659 12.30698 14716 ft 313 kts 275°
2026-05-04 18:10 47.39944 12.27550 14400 ft 308 kts 276°
2026-05-04 18:10 47.40247 12.24459 14099 ft 302 kts 276°
2026-05-04 18:10 47.40544 12.21430 13823 ft 295 kts 276°
2026-05-04 18:11 47.40802 12.18771 13608 ft 289 kts 276°
2026-05-04 18:11 47.41082 12.15888 13329 ft 285 kts 275°
2026-05-04 18:11 47.41346 12.12980 13046 ft 281 kts 276°
2026-05-04 18:11 47.41609 12.10130 12752 ft 277 kts 276°
2026-05-04 18:12 47.41874 12.07350 12480 ft 273 kts 276°
2026-05-04 18:12 47.42131 12.04594 12223 ft 268 kts 275°
2026-05-04 18:12 47.42376 12.01901 11971 ft 264 kts 276°
2026-05-04 18:12 47.42626 11.99253 11756 ft 260 kts 276°
2026-05-04 18:13 47.42844 11.96636 11571 ft 253 kts 270°
2026-05-04 18:13 47.42525 11.94196 11304 ft 235 kts 239°
2026-05-04 18:13 47.40210 11.91337 10928 ft 208 kts 210°
2026-05-04 18:14 47.38979 11.90287 10774 ft 204 kts 210°
2026-05-04 18:14 47.37769 11.89242 10523 ft 202 kts 211°
2026-05-04 18:14 47.36551 11.88183 10299 ft 202 kts 211°
2026-05-04 18:15 47.34158 11.86059 9883 ft 202 kts 216°
2026-05-04 18:15 47.32885 11.82454 9574 ft 204 kts 258°
2026-05-04 18:15 47.32659 11.80398 9356 ft 205 kts 261°
2026-05-04 18:16 47.32441 11.78330 9016 ft 203 kts 259°
2026-05-04 18:16 47.32195 11.76287 8678 ft 196 kts 258°
2026-05-04 18:16 47.31940 11.74380 8395 ft 186 kts 258°
2026-05-04 18:17 47.31422 11.70842 7808 ft 167 kts 257°
2026-05-04 18:17 47.31177 11.69232 7562 ft 156 kts 256°
2026-05-04 18:17 47.30723 11.66291 7125 ft 146 kts 257°
2026-05-04 18:18 47.30499 11.64840 6901 ft 146 kts 257°
2026-05-04 18:18 47.30274 11.63381 6666 ft 146 kts 257°
2026-05-04 18:18 47.30051 11.61923 6426 ft 146 kts 257°
2026-05-04 18:18 47.29829 11.60465 6183 ft 146 kts 257°
2026-05-04 18:19 47.29394 11.57572 5697 ft 146 kts 257°
2026-05-04 18:19 47.29176 11.56115 5451 ft 146 kts 257°
2026-05-04 18:19 47.28957 11.54646 5201 ft 146 kts 257°
2026-05-04 18:20 47.28741 11.53189 4953 ft 146 kts 256°
2026-05-04 18:20 47.28526 11.51741 4705 ft 145 kts 256°
2026-05-04 18:20 47.28312 11.50296 4456 ft 145 kts 256°
2026-05-04 18:20 47.28097 11.48846 4211 ft 145 kts 256°
2026-05-04 18:21 47.27884 11.47402 3954 ft 144 kts 257°
2026-05-04 18:21 47.27691 11.46096 3722 ft 143 kts 257°
2026-05-04 18:21 47.27481 11.44669 3472 ft 142 kts 257°
2026-05-04 18:21 47.27267 11.43255 3220 ft 141 kts 258°
2026-05-04 18:22 47.27053 11.41830 3007 ft 141 kts 257°
2026-05-04 18:22 47.26839 11.40408 2717 ft 140 kts 258°
2026-05-04 18:22 47.26625 11.38994 2499 ft 140 kts 256°
2026-05-04 18:22 47.26401 11.37601 2256 ft 139 kts 256°
2026-05-04 18:23 47.26215 11.36182 2003 ft 139 kts 260°
2026-05-04 18:23 47.26064 11.34797 1930 ft 123 kts 260°
2026-05-04 18:23 47.25975 11.33989 1935 ft 33 kts 260°
2026-05-04 18:23 47.25916 11.33717 1937 ft 19 kts 191°
2026-05-04 18:24 47.25854 11.33793 1938 ft 10 kts 130°
2026-05-04 18:24 47.25807 11.33884 1939 ft 11 kts 125°
2026-05-04 18:24 47.25777 11.33969 1940 ft 12 kts 106°
2026-05-04 18:24 47.25776 11.34102 1940 ft 13 kts 82°
2026-05-04 18:25 47.25790 11.34244 1939 ft 14 kts 81°
2026-05-04 18:25 47.25806 11.34395 1939 ft 15 kts 81°
2026-05-04 18:25 47.25824 11.34555 1939 ft 16 kts 80°
2026-05-04 18:25 47.25840 11.34718 1938 ft 9 kts 84°
2026-05-04 18:26 47.25794 11.34754 1938 ft 7 kts 170°
2026-05-04 18:26 47.25789 11.34755 1938 ft 0 kts 170°